Find Starlink 32523

NORAD ID: 62165 Int'l Des: 2024-225 Owner: SPXS Country: US Constellation: starlink operational
LEOCIRCULAR

現在のビュー

3D地球を読み込み中...

About Starlink 32523

Starlink 32523 (NORAD 62165) is a starlink constellation satellite (v2 mini) launched Nov 30, 2024 by SPXS of US. It operates in LEO, CIRCULAR orbit with a mass of 730.00 kg.

Starlink 32523について

説明を読み込み中...

次回通過

Passes for default location (London). Set your location on the main map for personalized predictions.

高度履歴

Loading altitude history...

軌道要素

1 62165U 24225C 26171.30391507 .00001075 00000-0 97860-4 0 9997
2 62165 70.0037 265.8073 0003000 271.7129 88.3686 14.98336667 85243
Epoch: Jun 20, 2026 • Age: 5 hours

現在のステータス

高度 582.9 km
速度 7.57 km/s
衛星直下点 57.03°N, 46.71°W
打ち上げ日 Nov 30, 2024
運用期間 1.5 years
タイプ internet

技術仕様

分類 Payload
質量 730.00 kg
乾燥質量 700.00 kg
総質量 730.00 kg
長さ 0.30 m
直径 4.10 m
スパン 29.00 m
形状 Box + pan
製造者 SPXS
バスタイプ Starlink V2M
フェーズステータス In Orbit
所有者/国 SPXS/US

Most Searched